Jorge Medina

Olheiro - Aldosivi
19 Nov 2028
Domingo
Processo

Personalidade

Adaptabilidade (19) Ambição (11) Controvérsia (8) Lealdade (15) Pressão (4) Profissionalismo (7) Espírito Esportivo (12) Temperamento (8)

Perfil

Estilo de Treinamento Democrático
Licença Continental A
Determinação 11
Gestão de Pessoas 11
Motivação 5
Disciplina 8
Satisfação no Trabalho
100%
Fadiga
0%
Função Olheiro
Salário 74.7K p/s
Contrato 14.03.2030

Desempenho

Comportamento Bom
Eficácia do Treinamento
31%
Desenvolvimento do Jogador
60%
Prevenção de Lesões
50%
Implementação Tática
30%

Eventos Recentes

Participou de uma reunião de recrutamento 7d atrás
Participou de uma reunião de recrutamento 14d atrás
Participou de uma reunião de recrutamento 21d atrás
Participou de uma reunião de recrutamento 28d atrás
Participou de uma reunião de recrutamento 35d atrás
Participou de uma reunião de recrutamento 42d atrás
Participou de uma reunião de recrutamento 49d atrás
Participou de uma reunião de recrutamento 56d atrás

Monitorando agora

100
Jogador Clube Status Habilidade Confiança Observado Última observação Último voto
Pontus Almqvist Parma Ativo 113 / 133 40% 3 29.05.2027 -
Adrián Bernabé Parma Ativo 123 / 145 40% 4 26.05.2027 -
Mehdi Dorval Catanzaro Ativo 114 / 132 40% 3 25.05.2027 -
Mitchel Bakker Modena Ativo 121 / 124 40% 3 23.05.2027 -
Odilon Kossounou Atalanta Ativo 130 / 147 40% 2 22.05.2027 -
Gianluca Frabotta Cesena Ativo 136 / 118 40% 1 22.05.2027 -
Ilyas Ansah Hull City Ativo 144 / 131 40% 3 21.05.2027 -
Stefano Di Mario Virtus Entella Ativo 116 / 125 40% 2 21.05.2027 -
Giorgi Kvernadze Frosinone Ativo 144 / 122 40% 1 20.05.2027 -
Nicolò Zaniolo Udinese Ativo 126 / 147 40% 1 18.05.2027 -
Ilario Monterisi Frosinone Ativo 129 / 136 40% 2 14.05.2027 -
Jordan Zemura Udinese Ativo 138 / 148 40% 1 14.05.2027 -
Nicolò Cambiaghi Bologna Ativo 133 / 125 40% 3 11.05.2027 -
Mikael Egill Ellertsson Genoa Ativo 150 / 139 40% 1 09.05.2027 -
Raoul Bellanova Atalanta Ativo 168 / 138 40% 4 08.05.2027 -
Niccolò Pierozzi Palermo Ativo 137 / 121 40% 1 07.05.2027 -
Danilo Veiga Lecce Ativo 113 / 138 40% 1 07.05.2027 -
Hannibal Burnley Ativo 138 / 123 40% 1 02.05.2027 -
Lucas Da Cunha Como Ativo 140 / 135 40% 1 30.04.2027 -
Stiven Shpendi Empoli Ativo 137 / 113 40% 1 29.04.2027 -
Christian Kouan Benevento Ativo 103 / 102 40% 1 26.04.2027 -
Marco Pompetti Padova Ativo 138 / 138 40% 1 25.04.2027 -
Billy Gilmour Napoli Ativo 129 / 133 40% 1 22.04.2027 -
Gianluca Busio Venezia Ativo 136 / 143 40% 2 19.04.2027 -
Bjorn Meijer Sampdoria Ativo 143 / 119 40% 2 17.04.2027 -
Camillo Tavernelli Arezzo Ativo 120 / 128 40% 1 11.04.2027 -
Giacomo Raspadori Atalanta Ativo 144 / 154 40% 4 10.04.2027 -
Alessandro Buongiorno Cagliari Ativo 152 / 146 40% 2 02.04.2027 -
Matteo Lovato Padova Ativo 138 / 140 40% 1 30.03.2027 -
Harry Clarke Preston Ativo 131 / 128 40% 2 27.03.2027 -
Terry Devlin Portsmouth Ativo 105 / 111 40% 1 27.03.2027 -
Mohamed-Ali Cho Hull City Ativo 143 / 135 40% 2 21.03.2027 -
Florentino Luís Ipswich Town Ativo 132 / 146 40% 2 20.03.2027 -
Brooke Norton-Cuffy Hull City Ativo 155 / 144 40% 5 13.03.2027 -
Trevoh Chalobah Como Ativo 139 / 140 40% 1 13.03.2027 -
Xavier Simons Bolton Wanderers Ativo 137 / 121 40% 1 12.03.2027 -
Jacob Greaves Ipswich Town Ativo 133 / 147 40% 1 11.03.2027 -
Nicolás Arévalo Metalist Ativo 120 / 132 40% 2 10.03.2027 -
Michael Baidoo Plymouth Argyle Ativo 113 / 138 40% 1 10.03.2027 -
Kristoffer Lund Birmingham Ativo 124 / 125 40% 1 09.03.2027 -
Pelle Mattsson Norwich City Ativo 111 / 119 40% 1 08.03.2027 -
Japhet Tanganga Sheffield United Ativo 116 / 131 40% 1 08.03.2027 -
Toby Collyer West Bromwich Albion Ativo 133 / 133 40% 2 06.03.2027 -
Jack Rudoni Coventry City Ativo 129 / 119 40% 2 05.03.2027 -
Bobby Clark Derby County Ativo 137 / 115 40% 1 03.03.2027 -
Lewis Bate Stockport County Ativo 103 / 113 40% 1 28.02.2027 -
Ronnie Edwards Queens Park Rangers Ativo 120 / 122 40% 1 25.02.2027 -
Jayden Bogle Leeds United Ativo 148 / 145 40% 1 24.02.2027 -
Petar Stanić Ludogorets Ativo 123 / 123 40% 1 22.02.2027 -
Adam Randell Bristol City Ativo 115 / 136 40% 3 21.02.2027 -
Jack Currie Oxford United Ativo 112 / 119 40% 1 14.02.2027 -
Habib Diarra Sunderland Ativo 128 / 150 40% 2 13.02.2027 -
Max Bird Birmingham Ativo 137 / 143 40% 1 08.02.2027 -
Luke McNally Bristol City Ativo 125 / 130 40% 1 08.02.2027 -
Max Arfsten Middlesbrough Ativo 127 / 119 40% 1 07.02.2027 -
Alfie Doughty Millwall Ativo 118 / 122 40% 2 06.02.2027 -
Teden Mengi Luton Town Ativo 143 / 135 40% 1 06.02.2027 -
Daniel Kyerewaa Reading Ativo 107 / 100 40% 1 05.02.2027 -
Dara O'Shea Ipswich Town Ativo 125 / 127 40% 1 03.02.2027 -
Welington Southampton Ativo 114 / 138 40% 2 02.02.2027 -
Jacques Ekomié Wrexham Ativo 113 / 136 40% 1 02.02.2027 -
Peter Federico Gornik Zabrze Ativo 135 / 131 40% 1 29.11.2026 -
Derensili Sanches Fernandes Huddersfield Town Ativo 126 / 125 40% 1 29.11.2026 -
Santiago Montiel Independiente Ativo 138 / 137 40% 1 28.11.2026 -
Sorba Thomas Stoke City Ativo 140 / 136 40% 1 27.11.2026 -
Thomas Carrique Andorra Ativo 119 / 109 40% 1 25.11.2026 -
Ethan Pye Stockport County Ativo 103 / 113 40% 1 25.11.2026 -
Gastón Benedetti Estudiantes Ativo 137 / 121 40% 2 22.11.2026 -
Jaminton Campaz Rosario Central Ativo 125 / 118 40% 1 20.11.2026 -
Bosun Lawal Stoke City Ativo 142 / 112 40% 1 20.11.2026 -
Justin Devenny Stoke City Ativo 125 / 126 40% 1 19.11.2026 -
Danil Glebov Dinamo Moscow Ativo 109 / 114 40% 1 18.11.2026 -
Ramiro Ruiz Rodríguez Atlético Tucumán Ativo 118 / 125 40% 1 18.11.2026 -
Justo Giani Umraniyespor Ativo 126 / 104 40% 3 17.11.2026 -
Jack McGlynn Stoke City Ativo 132 / 128 40% 2 17.11.2026 -
Reda Khadra Qarabag Ativo 141 / 124 40% 1 15.11.2026 -
Bradley Zwane SuperSport United Ativo 118 / 107 40% 1 13.11.2026 -
Tyrese Campbell Sheffield United Ativo 128 / 109 40% 2 11.11.2026 -
Milan van Ewijk Coventry City Ativo 128 / 139 40% 1 08.11.2026 -
Ali Ahmed Norwich City Ativo 136 / 118 40% 1 05.11.2026 -
Talles Magno New York City Ativo 121 / 137 40% 1 05.11.2026 -
Gonzalo Ríos Independiente Rivadavia Ativo 109 / 111 40% 2 04.11.2026 -
Leandro Lozano Boca Juniors Ativo 133 / 130 40% 1 03.11.2026 -
Manu Morlanes Mallorca Ativo 155 / 152 40% 3 01.11.2026 -
Iván Tapia Barracas Central Ativo 132 / 126 40% 1 01.11.2026 -
Alex Luna Instituto Ativo 127 / 129 40% 1 30.10.2026 -
Toti Wolverhampton Ativo 132 / 118 40% 1 29.10.2026 -
Martín Ortega Newell's Old Boys Ativo 115 / 124 40% 1 29.10.2026 -
Aidan Morris Middlesbrough Ativo 115 / 120 40% 1 27.10.2026 -
Alex Vigo Independiente Rivadavia Ativo 108 / 113 40% 1 25.10.2026 -
Damián Fernández Defensa y Justicia Ativo 129 / 120 40% 1 24.10.2026 -
Anel Ahmedhodžić Burnley Ativo 134 / 118 40% 1 21.10.2026 -
Emiliano Álvarez Progreso Ativo 124 / 131 40% 1 17.10.2026 -
Juan Cruz de los Santos Nacional Ativo 118 / 124 40% 1 15.10.2026 -
Alan Lescano Argentinos Juniors Ativo 127 / 124 40% 1 12.10.2026 -
Esteban Obregón Montevideo City Torque Ativo 110 / 111 40% 1 11.10.2026 -
Santiago Toloza O'Higgins Ativo 112 / 128 40% 1 08.10.2026 -
Andrés Montaño Cruz Azul Ativo 104 / 129 40% 1 08.10.2026 -
Kevin Castañeda Guadalajara Ativo 129 / 103 40% 1 05.10.2026 -
Brian Gutiérrez Guadalajara Ativo 146 / 113 40% 1 05.10.2026 -